Location: Copeville
(33.0796°N, 96.4155°W)
Time: 20:01:27
(UTC+00:00)

NOAA 19 - Pass Details

Date: 02 April 2023
Orbit: 840 x 859 km, 99.1° (Epoch: 31 May)

Event Time Altitude Azimuth Distance (km) Brightness Sun altitude
Exits shadow 01:13:11 - 118° (ESE) 2,811 7.3 -6.5°
Reaches altitude 10° 01:14:22 10° 110° (ESE) 2,466 7.0 -6.7°
Maximum altitude 01:18:09 20° 66° (ENE) 1,879 6.6 -7.5°
Drops below altitude 10° 01:21:57 10° 22° (NNE) 2,467 7.5 -8.3°
Sets 01:24:55 0° 5° (N) 3,403 8.4 -8.9°
